Location: Rounton
(54.4000°N, 1.3500°W)
Time: 14:43:49
(UTC+00:00)

Transit 4A - Pass Details

Date: 06 December 2021
Orbit: 864 x 981 km, 66.8° (Epoch: 20 January)

Event Time Altitude Azimuth Distance (km) Brightness Sun altitude
Rises 01:39:14 0° 314° (NW) 3,577 - -52.7°
Reaches altitude 10° 01:41:52 10° 321° (NW) 2,650 - -52.5°
Maximum altitude 01:47:47 45° 33° (NNE) 1,281 - -51.9°
Drops below altitude 10° 01:53:50 10° 105° (ESE) 2,710 - -51.2°
Sets 01:56:33 0° 112° (ESE) 3,665 - -51.0°
